Hourly Weather Roundup
Issued by NWS Central Illinois

Home | Current Version | Previous Version | Text Only | Print | Product List | Glossary Off
Versions: 1 2 3 4 5 6 7 8 9 10 11 12 13 14 15 16 17 18 19 20 21 22 23 24 25 26 27 28 29 30 31 32 33 34 35 36 37 38 39 40 41 42 43 44 45 46 47 48 49 50

000
NZUS43 KILX 300910
HWRILX

AREA WEATHER ROUNDUP
NATIONAL WEATHER SERVICE, LINCOLN IL
400 AM CDT MON MAY 30 2016


CITY           SKY/WX    TMP DP  RH WIND       PRES   REMARKS
BLOOMINGTON    CLOUDY    68  59  73 W6        30.05S
CHAMPAIGN      CLOUDY    62  57  83 CALM      30.04S
DANVILLE       MOCLDY    61  58  90 CALM      30.03R
DECATUR        PTCLDY    63  57  81 SW3       30.04F
EFFINGHAM      CLOUDY    62  62 100 CALM      30.06F
FLORA          CLEAR     64  62  95 CALM      30.05S
GALESBURG      CLOUDY    62  57  86 CALM      30.03S
JACKSONVILLE   CLOUDY    64  61  88 SE3       30.03F
LACON          CLOUDY    60  57  91 CALM      30.01F
LAWRENCEVILLE  CLEAR     64  63  96 CALM      30.05R
LITCHFIELD     CLOUDY    63  59  86 CALM      30.05S
$$


CITY           SKY/WX    TMP DP  RH WIND       PRES   REMARKS
LINCOLN        CLOUDY    63  60  89 CALM      30.04S
MACOMB         CLOUDY    64  60  88 CALM      30.04F
MATTOON        CLOUDY    66  58  75 CALM      30.05R
MT CARMEL AP   CLEAR     63  60  90 CALM      30.05S
OLNEY-NOBLE AP CLOUDY    61  61 100 CALM      30.05F
PARIS          PTCLDY    60  58  94 CALM      30.06R
PEORIA         CLOUDY    63  58  83 CALM      30.03F
PONTIAC        CLOUDY    62  59  88 CALM      30.03S
RANTOUL        MOCLDY    65  61  86 CALM      30.04S
ROBINSON       PTCLDY    60  59  99 CALM      30.06S
SPRINGFIELD    CLOUDY    64  60  87 CALM      30.04S
TAYLORVILLE    CLOUDY    62  59  91 CALM      30.05S
$$

...REGIONAL REPORTS...


CITY           SKY/WX    TMP DP  RH WIND       PRES   REMARKS
CHICAGO O`HARE MOCLDY    66  58  75 W5        30.00S
KANKAKEE       CLEAR     59  56  91 CALM      30.03S
MOLINE         CLOUDY    62  56  80 CALM      30.00F
MOUNT STERLING PTCLDY    64  61  90 CALM      30.02F
MOUNT VERNON   CLOUDY    59  54  82 CALM      30.05F
PITTSFIELD     PTCLDY    65  63  94 CALM      30.05S
QUINCY         CLOUDY    65  62  90 S3        30.02F
ROCKFORD       MOCLDY    62  60  93 CALM      30.03S
$$


CITY           SKY/WX    TMP DP  RH WIND       PRES   REMARKS
BURLINGTON     PTCLDY    65  63  93 W3        30.02S
CEDAR RAPIDS   CLOUDY    60  58  92 S8        30.00S
DES MOINES     CLOUDY    67  58  72 S6        29.99F
KIRKSVILLE     PTCLDY    63  60  90 W3        30.03F
OTTUMWA        CLOUDY    66  61  84 S7        30.01R
ST LOUIS       PTCLDY    69  60  73 CALM      30.05S
$$


CITY           SKY/WX    TMP DP  RH WIND       PRES   REMARKS
TERRE HAUTE    CLEAR     60  58  92 CALM      30.05R
EVANSVILLE     CLEAR     63  61  93 CALM      30.05R
INDIANAPOLIS   PTCLDY    61  57  87 W3        30.03R
LAFAYETTE      CLOUDY    59  57  93 CALM      30.04R
MADISON        FOG       58  57  97 CALM      29.99S VSB 1
MILWAUKEE      CLEAR     65  57  75 W5        29.98S
$$






USA.gov is the U.S. government's official web portal to all federal, state and local government web resources and services.